Muskegon, MI

1:50 AM EDT on October 23, 2019 (GMT -0400)
Muskegon County

Weather History for KMKG - August, 2019

Change the Weather History Date:

Sunday, August 11, 2019

  Actual Average Record
Temperature  
Mean Temperature 71 °F 71 °F  
Max Temperature 82 °F 79 °F 91 °F (1947)
Min Temperature 59 °F 62 °F 47 °F (1965)
Degree Days  
Heating Degree Days 0 0  
Month to date heating degree days 0 0  
Since 1 June heating degree days 58 77  
Since 1 July heating degree days 1 11  
Cooling Degree Days 6 6  
Month to date cooling degree days 63 66  
Year to date cooling degree days 434 402  
Since 1 June cooling degree days 431 373  
Growing Degree Days 21 (Base 50)    
Moisture  
Dew Point 60 °F    
Average Humidity 67    
Maximum Humidity 84    
Minimum Humidity 49    
Precipitation  
Precipitation T in 0.11 in 1.57 in (1941)
Month to date precipitation 0.71 1.16  
Year to date precipitation 25.68 18.35  
Snow  
Snow 0.00 in 0.00 in - ()
Month to date snowfall 0.0 0.0  
Since 1 June snowfall 0.0 0.0  
Since 1 July snowfall 0.0 0.0  
Snow Depth 0.00 in    
Sea Level Pressure  
Sea Level Pressure 30.00 in    
Wind  
Wind Speed 5 mph (South)    
Max Wind Speed 15 mph    
Max Gust Speed 22 mph    
Visibility 10 miles    
Events Rain    
T = Trace of Precipitation, MM = Missing Value Source: NWS Daily Summary

Daily Weather History Graph

Daily Weather History Graph

Search for Another Location

Airport or City:

Astronomy

Aug. 11, 2019 Rise Set
Actual Time 6:45 AM EDT 8:53 PM EDT
Civil Twilight 6:14 AM EDT 9:24 PM EDT
Nautical Twilight 5:36 AM EDT 10:03 PM EDT
Astronomical Twilight 4:53 AM EDT 10:45 PM EDT
Moon 6:36 PM EDT (8/11) 3:02 AM EDT (8/11)
Length of Visible Light 15h 10m
Length of Day
14h 07m
Waxing Gibbous, 87% of the Moon is Illuminated
Aug 11
Waxing Gibbous
Aug 15
Full
Aug 23
Last Quarter
Aug 30
New
Sep 5
First Quarter

Hourly Weather History & Observations

Time (EDT) Temp. Heat Index Dew Point Humidity Pressure Visibility Wind Dir Wind Speed Gust Speed Precip Events Conditions
12:55 AM 61.0 °F - 55.9 °F 83% 30.02 in 10.0 mi Calm Calm - N/A   Clear
1:55 AM 61.0 °F - 55.0 °F 81% 30.03 in 10.0 mi Calm Calm - N/A   Clear
2:55 AM 60.1 °F - 55.9 °F 86% 30.02 in 10.0 mi SE 4.6 mph - N/A   Scattered Clouds
3:55 AM 62.1 °F - 57.0 °F 84% 30.02 in 10.0 mi ESE 4.6 mph - N/A   Mostly Cloudy
4:55 AM 63.0 °F - 57.0 °F 81% 30.03 in 10.0 mi Calm Calm - N/A   Overcast
5:55 AM 64.9 °F - 55.9 °F 73% 30.04 in 10.0 mi Calm Calm - 0.00 in Rain Light Rain
6:55 AM 64.0 °F - 59.0 °F 84% 30.04 in 10.0 mi Calm Calm - 0.00 in   Mostly Cloudy
7:55 AM 66.0 °F - 60.1 °F 81% 30.04 in 10.0 mi ESE 4.6 mph - N/A   Mostly Cloudy
8:55 AM 69.1 °F - 60.1 °F 73% 30.05 in 10.0 mi South 5.8 mph - N/A   Mostly Cloudy
9:55 AM 71.1 °F - 59.0 °F 66% 30.05 in 10.0 mi Variable 3.5 mph - N/A   Overcast
10:55 AM 75.9 °F - 59.0 °F 56% 30.04 in 10.0 mi SE 6.9 mph - N/A   Mostly Cloudy
11:55 AM 80.1 °F 80.7 °F 59.0 °F 48% 30.03 in 10.0 mi SSE 8.1 mph - N/A   Mostly Cloudy
12:55 PM 80.1 °F 81.1 °F 61.0 °F 52% 30.02 in 10.0 mi SSW 13.8 mph - N/A   Mostly Cloudy
1:55 PM 81.0 °F 82.5 °F 64.0 °F 56% 30.02 in 10.0 mi SW 15.0 mph - N/A   Mostly Cloudy
2:55 PM 81.0 °F 82.5 °F 64.0 °F 56% 30.01 in 10.0 mi SW 10.4 mph - N/A   Mostly Cloudy
3:55 PM 81.0 °F 81.7 °F 61.0 °F 50% 30.00 in 10.0 mi SSW 6.9 mph - N/A   Mostly Cloudy
4:55 PM 79.0 °F - 61.0 °F 54% 29.98 in 10.0 mi South 8.1 mph - N/A   Mostly Cloudy
5:55 PM 77.0 °F - 60.1 °F 56% 29.97 in 10.0 mi South 4.6 mph - N/A   Overcast
6:55 PM 77.0 °F - 60.1 °F 56% 29.96 in 10.0 mi South 5.8 mph - N/A   Overcast
7:55 PM 75.9 °F - 61.0 °F 60% 29.94 in 10.0 mi South 3.5 mph - 0.00 in   Overcast
8:55 PM 77.0 °F - 60.1 °F 56% 29.94 in 10.0 mi Calm Calm - N/A   Overcast
9:55 PM 75.9 °F - 62.1 °F 62% 29.94 in 10.0 mi East 3.5 mph - N/A   Overcast
10:55 PM 75.0 °F - 62.1 °F 64% 29.94 in 10.0 mi Calm Calm - N/A   Overcast
11:55 PM 75.0 °F - 62.1 °F 64% 29.93 in - Calm Calm - N/A   Overcast